Weather History for Burlington, WA

Change the Weather History Date:

Tuesday, December 24, 2013

  Actual Average Record
Temperature  
Mean Temperature 40 °F -  
Max Temperature 44 °F 44 °F 65 °F (1963)
Min Temperature 35 °F 34 °F 6 °F (1983)
Degree Days  
Heating Degree Days 26    
Moisture  
Dew Point 40 °F    
Average Humidity 100    
Maximum Humidity 100    
Minimum Humidity 100    
Precipitation  
Precipitation 0.00 in - - ()
Sea Level Pressure  
Sea Level Pressure 30.59 in    
Wind  
Wind Speed 2 mph (SE)    
Max Wind Speed 7 mph    
Max Gust Speed -    
Visibility 9 miles    
Events      
Averages and records for this station are not official NWS values.
T = Trace of Precipitation, MM = Missing Value Source: NWS Daily Summary

Daily Weather History Graph

Daily Weather History Graph

Search for Another Location

Airport:

Trip Planner

Search our weather history database for the weather conditions in past years. The results will help you decide how hot, cold, wet, or windy it might be!

Date:

Astronomy

Dec. 24, 2013 Rise Set
Actual Time 8:00 AM PST 4:18 PM PST
Civil Twilight 7:23 AM PST 4:55 PM PST
Nautical Twilight 6:43 AM PST 5:35 PM PST
Astronomical Twilight 6:05 AM PST 6:14 PM PST
Moon No Moon Rise 11:25 AM PST (12/24)
Length of Visible Light 9h 32m
Length of Day
8h 18m
Waning Gibbous, 57% of the Moon is Illuminated
Dec 24
Waning Gibbous
Dec 25
Last Quarter
Jan 1
New
Jan 7
First Quarter
Jan 15
Full

Hourly Weather History & Observations

Time (PST) Temp. Windchill Dew Point Humidity Pressure Visibility Wind Dir Wind Speed Gust Speed Precip Events Conditions
12:15 AM 37.4 °F - 37.4 °F 100% 30.53 in 1.2 mi Calm Calm - 0.00 in   Clear
12:35 AM 39.2 °F - 39.2 °F 100% 30.53 in 9.0 mi Calm Calm - 0.00 in   Scattered Clouds
12:55 AM 37.4 °F - 37.4 °F 100% 30.54 in 9.0 mi Calm Calm - 0.00 in   Mostly Cloudy
1:15 AM 39.2 °F - 39.2 °F 100% 30.54 in 10.0 mi Calm Calm - 0.00 in   Overcast
1:35 AM 37.4 °F - 37.4 °F 100% 30.54 in 10.0 mi Calm Calm - 0.00 in   Scattered Clouds
1:55 AM 39.2 °F - 39.2 °F 100% 30.55 in 10.0 mi Calm Calm - 0.00 in   Mostly Cloudy
2:15 AM 37.4 °F - 37.4 °F 100% 30.56 in 10.0 mi Calm Calm - 0.00 in   Overcast
2:35 AM 39.2 °F - 39.2 °F 100% 30.56 in 10.0 mi Calm Calm - 0.00 in   Overcast
2:55 AM 39.2 °F - 39.2 °F 100% 30.56 in 10.0 mi Calm Calm - 0.00 in   Overcast
3:15 AM 41.0 °F - 41.0 °F 100% 30.56 in 10.0 mi Calm Calm - 0.00 in   Overcast
3:35 AM 39.2 °F - 39.2 °F 100% 30.57 in 10.0 mi Calm Calm - 0.00 in   Mostly Cloudy
3:55 AM 39.2 °F - 39.2 °F 100% 30.57 in 10.0 mi Calm Calm - 0.00 in   Mostly Cloudy
4:15 AM 39.2 °F - 39.2 °F 100% 30.58 in 10.0 mi Calm Calm - 0.00 in   Mostly Cloudy
4:35 AM 39.2 °F 37.0 °F 39.2 °F 100% 30.59 in 10.0 mi SSW 3.5 mph - 0.00 in   Overcast
4:55 AM 39.2 °F 37.0 °F 39.2 °F 100% 30.59 in 10.0 mi South 3.5 mph - 0.00 in   Overcast
5:15 AM 39.2 °F - 39.2 °F 100% 30.59 in 10.0 mi Calm Calm - 0.00 in   Overcast
5:35 AM 39.2 °F 35.9 °F 39.2 °F 100% 30.59 in 10.0 mi South 4.6 mph - 0.00 in   Overcast
5:55 AM 39.2 °F 37.0 °F 39.2 °F 100% 30.60 in 10.0 mi SSE 3.5 mph - 0.00 in   Overcast
6:15 AM 39.2 °F 35.9 °F 39.2 °F 100% 30.60 in 10.0 mi SSE 4.6 mph - 0.00 in   Overcast
6:35 AM 39.2 °F - 39.2 °F 100% 30.60 in 10.0 mi Calm Calm - 0.00 in   Overcast
6:55 AM 37.4 °F - 37.4 °F 100% 30.60 in 10.0 mi Calm Calm - 0.00 in   Mostly Cloudy
7:15 AM 39.2 °F - 39.2 °F 100% 30.60 in 10.0 mi Calm Calm - 0.00 in   Overcast
7:35 AM 39.2 °F - 39.2 °F 100% 30.60 in 10.0 mi Calm Calm - 0.00 in   Overcast
7:55 AM 39.2 °F - 39.2 °F 100% 30.61 in 10.0 mi Calm Calm - 0.00 in   Overcast
8:15 AM 39.2 °F - 39.2 °F 100% 30.61 in 10.0 mi Calm Calm - 0.00 in   Mostly Cloudy
8:35 AM 39.2 °F - 39.2 °F 100% 30.61 in 10.0 mi Calm Calm - 0.00 in   Overcast
8:55 AM 41.0 °F - 41.0 °F 100% 30.62 in 10.0 mi Calm Calm - 0.00 in   Overcast
9:15 AM 41.0 °F 39.0 °F 41.0 °F 100% 30.63 in 10.0 mi SSW 3.5 mph - 0.00 in   Overcast
9:35 AM 42.8 °F 41.1 °F 42.8 °F 100% 30.63 in 10.0 mi South 3.5 mph - 0.00 in   Overcast
9:55 AM 42.8 °F - 42.8 °F 100% 30.63 in 10.0 mi Calm Calm - 0.00 in   Mostly Cloudy
10:15 AM 42.8 °F 40.1 °F 42.8 °F 100% 30.63 in 10.0 mi South 4.6 mph - 0.00 in   Scattered Clouds
10:35 AM 42.8 °F 40.1 °F 42.8 °F 100% 30.63 in 10.0 mi South 4.6 mph - 0.00 in   Mostly Cloudy
10:55 AM 42.8 °F 41.1 °F 42.8 °F 100% 30.63 in 10.0 mi SSE 3.5 mph - 0.00 in   Overcast
11:15 AM 44.6 °F 41.4 °F 44.6 °F 100% 30.63 in 10.0 mi SSE 5.8 mph - 0.00 in   Overcast
11:35 AM 44.6 °F 40.7 °F 44.6 °F 100% 30.62 in 10.0 mi South 6.9 mph - 0.00 in   Mostly Cloudy
11:55 AM 44.6 °F 42.2 °F 44.6 °F 100% 30.62 in 5.0 mi South 4.6 mph - 0.00 in   Mostly Cloudy
12:15 PM 44.6 °F 41.4 °F 44.6 °F 100% 30.62 in 10.0 mi South 5.8 mph - 0.00 in   Overcast
12:35 PM 44.6 °F 43.1 °F 44.6 °F 100% 30.62 in 10.0 mi South 3.5 mph - 0.00 in   Overcast
12:55 PM 44.6 °F 42.2 °F 44.6 °F 100% 30.62 in 10.0 mi SSE 4.6 mph - 0.00 in   Overcast
1:15 PM 44.6 °F 43.1 °F 44.6 °F 100% 30.61 in 10.0 mi South 3.5 mph - 0.00 in   Mostly Cloudy
1:35 PM 44.6 °F 43.1 °F 44.6 °F 100% 30.61 in 8.0 mi South 3.5 mph - 0.00 in   Mostly Cloudy
1:55 PM 44.6 °F 43.1 °F 44.6 °F 100% 30.61 in 9.0 mi SSW 3.5 mph - 0.00 in   Overcast
2:15 PM 44.6 °F 43.1 °F 44.6 °F 100% 30.60 in 10.0 mi South 3.5 mph - 0.00 in   Overcast
2:35 PM 44.6 °F 43.1 °F 44.6 °F 100% 30.61 in 10.0 mi South 3.5 mph - 0.00 in   Overcast
2:55 PM 44.6 °F - 44.6 °F 100% 30.61 in 10.0 mi Calm Calm - 0.00 in   Overcast
3:15 PM 44.6 °F - 44.6 °F 100% 30.61 in 10.0 mi Calm Calm - 0.00 in   Overcast
3:35 PM 44.6 °F - 44.6 °F 100% 30.61 in 10.0 mi Calm Calm - 0.00 in   Overcast
3:55 PM 44.6 °F - 44.6 °F 100% 30.61 in 10.0 mi Calm Calm - 0.00 in   Overcast
4:15 PM 42.8 °F - 42.8 °F 100% 30.61 in 10.0 mi Calm Calm - 0.00 in   Overcast
4:35 PM 42.8 °F - 42.8 °F 100% 30.60 in 10.0 mi Calm Calm - 0.00 in   Overcast
4:55 PM 42.8 °F - 42.8 °F 100% 30.59 in 10.0 mi Calm Calm - 0.00 in   Overcast
5:15 PM 39.2 °F - 39.2 °F 100% 30.59 in 10.0 mi Calm Calm - 0.00 in   Overcast
5:35 PM 39.2 °F 37.0 °F 39.2 °F 100% 30.59 in 10.0 mi NNW 3.5 mph - 0.00 in   Mostly Cloudy
5:55 PM 39.2 °F 37.0 °F 39.2 °F 100% 30.58 in 10.0 mi North 3.5 mph - 0.00 in   Partly Cloudy
6:15 PM 39.2 °F - 39.2 °F 100% 30.58 in 9.0 mi Calm Calm - 0.00 in   Clear
6:35 PM 37.4 °F - 37.4 °F 100% 30.58 in 5.0 mi Calm Calm - 0.00 in   Clear
6:55 PM 35.6 °F - 35.6 °F 100% 30.58 in 0.2 mi Calm Calm - 0.00 in   Unknown
7:15 PM 35.6 °F - 35.6 °F 100% 30.58 in 4.0 mi Calm Calm - 0.00 in   Clear
7:35 PM 35.6 °F 32.8 °F 35.6 °F 100% 30.58 in 1.8 mi NNW 3.5 mph - 0.00 in   Clear
7:55 PM 37.4 °F 34.9 °F 37.4 °F 100% 30.58 in 10.0 mi NNW 3.5 mph - 0.00 in   Clear
8:15 PM 35.6 °F - 35.6 °F 100% 30.57 in 10.0 mi Calm Calm - 0.00 in   Clear
8:35 PM 35.6 °F 32.8 °F 35.6 °F 100% 30.58 in 7.0 mi NNE 3.5 mph - 0.00 in   Clear
8:55 PM 37.4 °F 32.1 °F 37.4 °F 100% 30.57 in 10.0 mi ENE 6.9 mph - 0.00 in   Partly Cloudy
9:15 PM 37.4 °F 32.1 °F 37.4 °F 100% 30.57 in 10.0 mi NE 6.9 mph - 0.00 in   Clear
9:35 PM 37.4 °F 32.1 °F 37.4 °F 100% 30.57 in 10.0 mi NE 6.9 mph - 0.00 in   Clear
9:55 PM 37.4 °F 32.1 °F 37.4 °F 100% 30.57 in 10.0 mi NE 6.9 mph - 0.00 in   Partly Cloudy
10:15 PM 37.4 °F 32.8 °F 37.4 °F 100% 30.57 in 10.0 mi NE 5.8 mph - 0.00 in   Scattered Clouds
10:35 PM 35.6 °F 30.7 °F 35.6 °F 100% 30.57 in 10.0 mi NE 5.8 mph - 0.00 in   Partly Cloudy
10:55 PM 35.6 °F 29.9 °F 35.6 °F 100% 30.57 in 10.0 mi NNE 6.9 mph - 0.00 in   Clear
11:15 PM 35.6 °F 32.8 °F 35.6 °F 100% 30.58 in 10.0 mi NNE 3.5 mph - 0.00 in   Clear
11:35 PM 35.6 °F 30.7 °F 35.6 °F 100% 30.57 in 10.0 mi NE 5.8 mph - 0.00 in   Clear
11:55 PM 35.6 °F 30.7 °F 35.6 °F 100% 30.57 in 10.0 mi ENE 5.8 mph - 0.00 in   Partly Cloudy